Location: Stuttgart
(48.8069°N, 9.1544°E)
Time: 03:33:33
(UTC+02:00)

ISS - Pass Details

Date: 18 May 2021
Orbit: 417 x 422 km, 51.6° (Epoch: 15 June)

Event Time Altitude Azimuth Distance (km) Brightness Sun altitude
Rises 22:51:53 0° 259° (W) 2,361 0.4 -13.9°
Reaches altitude 10° 22:53:59 10° 262° (W) 1,500 -0.6 -14.1°
Maximum altitude 22:57:20 66° 345° (NNW) 464 -3.4 -14.5°
Drops below altitude 10° 23:00:42 10° 69° (ENE) 1,507 -1.1 -14.8°
Sets 23:02:49 0° 72° (ENE) 2,373 -0.1 -15.0°
